Location: Ward Pound Ridge Reservation
(41.2500°N, 73.6000°W)
Time: 16:45:00

Vanguard 2 - Visible Passes

Search period start: 21 March 2018 00:00
Search period end: 31 March 2018 00:00
Orbit: 553 x 2939 km, 32.9° (Epoch: 21 March)

Date Brightness Start Highest point End Pass type
(mag) Time Alt. Az. Time Alt. Az. Time Alt. Az.
22 Mar 11.1 06:18:25 10° SE 06:19:01 10° SE 06:19:38 10° SE visible
27 Mar 10.4 05:36:12 10° SSE 05:38:58 13° SE 05:42:15 10° ESE visible
28 Mar 10.1 05:52:11 10° S 05:56:22 18° SE 06:01:53 10° E visible
29 Mar 9.9 06:09:02 10° SSW 06:13:52 24° SE 06:20:44 10° E visible
